| time (UTC) | temp F | wind direction | speed MPH | gust MPH | rain 1hr in | rain 24hr in | rain mn in | humidity % | barometer mb |
| 20260505090201 | 54 | 53 | 0.0 | 0.0 | 0.00 | 1.85 | 0.01 | 86 | 1010.8 |
| 20260505080701 | 53 | 44 | 0.0 | 0.0 | 0.00 | 1.85 | 0.01 | 85 | 1011.0 |
| 20260505073701 | 52 | 85 | 0.0 | 0.0 | 0.00 | 1.85 | 0.01 | 85 | 1011.2 |
| 20260505073201 | 53 | 84 | 0.0 | 0.0 | 0.00 | 1.85 | 0.01 | 85 | 1011.2 |
| 20260505070701 | 52 | 67 | 0.0 | 0.0 | 0.00 | 1.85 | 0.01 | 85 | 1011.3 |
| 20260505063701 | 52 | 255 | 0.0 | 0.0 | 0.00 | 1.85 | 0.01 | 84 | 1011.0 |
| 20260505060701 | 50 | 236 | 0.0 | 0.0 | 0.00 | 1.85 | 0.01 | 85 | 1011.1 |
| 20260505050201 | 47 | 221 | 0.0 | 1.0 | 0.01 | 1.85 | 0.01 | 85 | 1011.0 |
| 20260505040201 | 46 | 248 | 0.0 | 0.0 | 0.00 | 1.84 | 0.00 | 85 | 1011.0 |
| 20260505030200 | 50 | 248 | 0.0 | 0.0 | 0.00 | 1.84 | 0.00 | 85 | 1010.8 |
| 20260505000201 | 51 | 253 | 6.0 | 13.0 | 0.00 | 1.84 | 0.00 | 85 | 1011.2 |
| 20260504233700 | 51 | 257 | 0.0 | 0.0 | 0.00 | 1.84 | 0.00 | 85 | 1010.8 |
| 20260504230200 | 51 | 260 | 5.0 | 12.0 | 0.00 | 1.84 | 0.00 | 85 | 1010.8 |
| 20260504223700 | 51 | 256 | 1.0 | 7.0 | 0.00 | 1.84 | 0.00 | 85 | 1010.5 |
| 20260504223200 | 51 | 237 | 0.0 | 0.0 | 0.00 | 1.84 | 0.00 | 85 | 1010.5 |
| 20260504213659 | 53 | 230 | 0.0 | 0.0 | 0.00 | 1.84 | 1.84 | 85 | 1010.1 |
| 20260504210700 | 54 | 218 | 0.0 | 0.0 | 0.00 | 1.84 | 1.84 | 85 | 1010.0 |
| 20260504200659 | 55 | 215 | 0.0 | 0.0 | 0.09 | 1.84 | 1.84 | 85 | 1009.7 |
| 20260504200159 | 55 | 193 | 0.0 | 14.0 | 0.09 | 1.84 | 1.84 | 85 | 1009.7 |
| 20260504190200 | 59 | 179 | 0.0 | 8.0 | 0.21 | 1.75 | 1.75 | 84 | 1009.4 |
| 20260504183659 | 60 | 90 | 0.0 | 0.0 | 0.02 | 1.54 | 1.54 | 84 | 1009.0 |
| 20260504183200 | 60 | 81 | 0.0 | 0.0 | 0.02 | 1.54 | 1.54 | 84 | 1008.9 |
| 20260504173740 | 60 | 38 | 0.0 | 0.0 | 0.01 | 1.52 | 1.52 | 84 | 1008.8 |
| 20260504173241 | 60 | 38 | 0.0 | 0.0 | 0.01 | 1.52 | 1.52 | 84 | 1008.8 |
| 20260504170241 | 60 | 0 | 0.0 | 0.0 | 0.02 | 1.52 | 1.52 | 84 | 1009.2 |
| 20260504160241 | 60 | 55 | 0.0 | 0.0 | 0.03 | 1.50 | 1.50 | 85 | 1009.3 |
| 20260504150740 | 59 | 63 | 0.0 | 0.0 | 1.20 | 1.49 | 1.49 | 85 | 1009.6 |
| 20260504150240 | 59 | 63 | 0.0 | 0.0 | 1.20 | 1.47 | 1.47 | 85 | 1009.7 |
| 20260504140740 | 59 | 259 | 0.0 | 0.0 | 0.07 | 0.28 | 0.28 | 86 | 1010.4 |